DJ3OW-13 Weather Reports


Display with metric or nautical units.
time (UTC)temp
F
wind
direction
speed
MPH
gust
MPH
rain 1hr
in
rain 24hr
in
rain mn
in
humidity
%
barometer
mb
20260831200555 61 263 2.0 6.0 0.00 0.21 0.21 82 1016.8
20260831195553 60 262 2.0 6.0 0.00 0.21 0.21 82 1016.6
20260831194551 60 273 3.0 6.0 0.00 0.21 0.21 82 1016.5
20260831193549 61 260 2.0 6.0 0.00 0.21 0.21 82 1016.5
20260831192547 61 261 2.0 4.0 0.00 0.21 0.21 83 1016.5
20260831191545 61 256 4.0 7.0 0.00 0.21 0.21 82 1016.5
20260831190543 61 257 3.0 6.0 0.00 0.21 0.21 84 1016.4
20260831185541 61 297 3.0 6.0 0.00 0.21 0.21 85 1016.3
20260831184559 61 266 3.0 7.0 0.00 0.21 0.21 85 1016.3
20260831183617 61 267 3.0 6.0 0.00 0.21 0.21 85 1016.0
20260831182535 61 280 3.0 6.0 0.00 0.21 0.21 84 1015.8
20260831181533 61 277 3.0 7.0 0.00 0.21 0.21 84 1016.0
20260831180531 61 256 3.0 4.0 0.00 0.21 0.21 84 1015.7
20260831175529 61 288 4.0 8.0 0.00 0.21 0.21 83 1015.4
20260831174527 61 287 3.0 7.0 0.00 0.21 0.21 83 1015.4
20260831173525 62 279 3.0 8.0 0.00 0.21 0.21 83 1015.2
20260831172523 61 268 3.0 7.0 0.00 0.21 0.21 84 1015.3
20260831171521 61 289 3.0 7.0 0.01 0.21 0.21 83 1015.3
20260831170519 61 292 2.0 4.0 0.02 0.21 0.21 83 1015.2
20260831165516 61 254 2.0 4.0 0.04 0.21 0.21 85 1015.1
20260831164514 61 278 2.0 4.0 0.05 0.21 0.21 85 1014.7
20260831163613 61 270 3.0 8.0 0.05 0.21 0.21 85 1014.6
20260831162611 60 265 2.0 4.0 0.05 0.21 0.21 87 1014.8
20260831161609 61 263 3.0 7.0 0.04 0.20 0.20 87 1014.6
20260831160606 62 284 4.0 11.0 0.02 0.19 0.19 87 1015.0
20260831155604 63 272 3.0 7.0 0.01 0.18 0.18 86 1015.1
20260831154622 63 282 4.0 8.0 0.00 0.17 0.17 85 1015.0
20260831153601 63 242 4.0 8.0 0.00 0.17 0.17 88 1014.5
20260831152558 63 248 1.0 4.0 0.00 0.17 0.17 89 1014.3
20260831151557 63 248 1.0 2.0 0.15 0.17 0.17 88 1014.3
20260831150554 63 249 2.0 4.0 0.15 0.17 0.17 88 1014.3
20260831145552 63 266 3.0 4.0 0.15 0.17 0.17 90 1014.2
20260831144610 62 261 3.0 7.0 0.15 0.17 0.17 91 1013.9
20260831143548 62 251 4.0 9.0 0.15 0.17 0.17 91 1013.7
20260831142546 63 251 3.0 7.0 0.15 0.17 0.17 89 1014.0
20260831141544 68 242 3.0 8.0 0.00 0.01 0.01 72 1013.9
20260831140542 71 324 3.0 8.0 0.00 0.01 0.01 62 1013.8
20260831135600 71 305 3.0 7.0 0.00 0.01 0.01 63 1013.7
20260831134538 71 302 3.0 9.0 0.00 0.01 0.01 64 1013.9
20260831133536 73 134 3.0 9.0 0.00 0.01 0.01 62 1013.6
20260831132554 72 317 3.0 8.0 0.00 0.01 0.01 64 1013.8
20260831131532 70 156 2.0 7.0 0.00 0.01 0.01 67 1013.9
20260831130530 71 282 4.0 8.0 0.00 0.01 0.01 64 1014.1
20260831125528 72 123 1.0 4.0 0.00 0.01 0.01 61 1013.9
20260831124526 72 267 3.0 9.0 0.00 0.01 0.01 60 1013.8
20260831123524 72 282 2.0 8.0 0.00 0.01 0.01 61 1013.7
20260831122522 72 307 2.0 7.0 0.00 0.01 0.01 62 1014.0
20260831121520 71 268 2.0 6.0 0.00 0.01 0.01 62 1014.0
20260831120518 71 278 4.0 8.0 0.00 0.01 0.01 60 1013.8
20260831115516 72 319 3.0 9.0 0.00 0.01 0.01 60 1014.0
20260831114614 72 280 4.0 11.0 0.00 0.01 0.01 61 1014.0
20260831113612 73 304 3.0 8.0 0.00 0.01 0.01 59 1014.1
20260831112610 72 284 4.0 9.0 0.00 0.01 0.01 65 1014.0
20260831111608 72 328 2.0 7.0 0.00 0.01 0.01 65 1014.0
20260831110606 71 312 3.0 4.0 0.00 0.01 0.01 65 1014.1
20260831105604 72 289 3.0 8.0 0.00 0.01 0.01 66 1014.2
20260831104602 71 167 2.0 7.0 0.00 0.01 0.01 66 1014.2
20260831103620 70 101 3.0 9.0 0.00 0.01 0.01 67 1014.3
20260831102558 70 321 4.0 11.0 0.00 0.01 0.01 69 1014.3
20260831101556 70 279 2.0 6.0 0.00 0.01 0.01 73 1014.3
20260831100554 68 353 2.0 6.0 0.00 0.01 0.01 75 1014.3
20260831095552 68 298 3.0 6.0 0.00 0.01 0.01 74 1014.5
20260831094610 68 291 3.0 8.0 0.00 0.01 0.01 72 1014.5
20260831093548 69 291 4.0 9.0 0.00 0.01 0.01 71 1014.6
20260831092546 68 297 1.0 4.0 0.00 0.01 0.01 73 1014.5
20260831091543 69 270 3.0 9.0 0.01 0.01 0.01 72 1014.5
20260831090541 69 286 3.0 8.0 0.01 0.01 0.01 73 1014.6
20260831085539 69 277 2.0 7.0 0.01 0.01 0.01 73 1014.6
20260831084537 68 241 4.0 9.0 0.01 0.01 0.01 76 1014.6
20260831083535 67 267 2.0 6.0 0.01 0.01 0.01 81 1014.6
20260831082534 66 282 3.0 6.0 0.01 0.01 0.01 84 1014.7
20260831081532 65 299 1.0 4.0 0.00 0.00 0.00 86 1014.6
20260831080529 64 310 1.0 4.0 0.00 0.00 0.00 87 1014.5
20260831075527 64 71 1.0 4.0 0.00 0.00 0.00 88 1014.4
20260831074545 63 310 2.0 4.0 0.00 0.00 0.00 88 1014.4
20260831073523 63 309 2.0 4.0 0.00 0.00 0.00 88 1014.4
20260831072521 63 295 2.0 4.0 0.00 0.00 0.00 88 1014.4
20260831071519 64 332 1.0 4.0 0.00 0.00 0.00 87 1014.4
20260831070517 64 326 2.0 4.0 0.00 0.00 0.00 85 1014.4
20260831065515 64 330 1.0 4.0 0.00 0.00 0.00 84 1014.3
20260831064633 64 9 1.0 4.0 0.00 0.00 0.00 85 1014.3
20260831062629 64 336 1.0 4.0 0.00 0.00 0.00 84 1014.2
20260831061607 64 330 2.0 4.0 0.00 0.00 0.00 85 1014.0
20260831060605 63 4 1.0 6.0 0.00 0.00 0.00 86 1014.0
20260831055623 62 25 1.0 4.0 0.00 0.00 0.00 87 1013.8
20260831054601 62 2 1.0 4.0 0.00 0.00 0.00 88 1013.7
20260831053559 62 26 1.0 2.0 0.00 0.00 0.00 88 1013.7
20260831052557 61 13 1.0 4.0 0.00 0.00 0.00 88 1013.6
20260831051615 61 11 1.0 2.0 0.00 0.00 0.00 88 1013.5
20260831050553 61 23 1.0 2.0 0.00 0.00 0.00 88 1013.4
20260831045551 61 23 0.0 2.0 0.00 0.00 0.00 87 1013.5
20260831044609 60 23 0.0 2.0 0.00 0.00 0.00 87 1013.5
20260831043547 60 23 1.0 2.0 0.00 0.00 0.00 88 1013.5
20260831042545 60 0.0 0.0 0.00 0.00 0.00 87 1013.3
20260831041543 60 23 0.0 2.0 0.00 0.00 0.00 87 1013.3
20260831040601 60 23 0.0 2.0 0.00 0.00 0.00 86 1013.2
20260831035539 60 0.0 2.0 0.00 0.00 0.00 86 1013.0
20260831034537 60 23 0.0 2.0 0.00 0.00 0.00 85 1013.2
20260831033535 61 23 0.0 2.0 0.00 0.00 0.00 84 1013.4
20260831032533 60 23 0.0 2.0 0.00 0.00 0.00 85 1013.6
20260831031531 60 0.0 2.0 0.00 0.00 0.00 86 1013.6
20260831030529 60 55 1.0 2.0 0.00 0.00 0.00 87 1013.6
20260831025547 60 68 0.0 2.0 0.00 0.00 0.00 86 1013.4
20260831024525 60 68 0.0 2.0 0.00 0.00 0.00 86 1013.6
20260831023543 60 0.0 2.0 0.00 0.00 0.00 85 1013.5
20260831022521 60 68 0.0 2.0 0.00 0.00 0.00 86 1013.5
20260831021519 59 90 1.0 2.0 0.00 0.00 0.00 87 1013.7
20260831020517 59 79 1.0 2.0 0.00 0.00 0.00 87 1014.1
20260831015515 60 80 1.0 2.0 0.00 0.00 0.00 87 1014.2
20260831014613 60 73 1.0 2.0 0.00 0.00 0.00 87 1014.0
20260831013611 59 0.0 2.0 0.00 0.00 0.00 87 1014.2
20260831012609 59 68 0.0 2.0 0.00 0.00 0.00 87 1014.2
20260831011607 59 0.0 0.0 0.00 0.00 0.00 87 1014.3
20260831010605 59 68 0.0 2.0 0.00 0.00 0.00 87 1014.4
20260831005603 59 72 1.0 2.0 0.00 0.00 0.00 87 1014.4
20260831004601 60 0.0 2.0 0.00 0.00 0.00 86 1014.5
20260831003559 60 68 0.0 2.0 0.00 0.00 0.00 87 1014.4
20260831002557 59 68 0.0 2.0 0.00 0.00 0.00 87 1014.4
20260831001555 59 68 0.0 2.0 0.00 0.00 0.00 88 1014.5
20260831000553 59 0.0 0.0 0.00 0.00 0.00 87 1014.5
20260830235551 59 68 0.0 2.0 0.00 0.00 0.00 86 1014.6
20260830234549 59 68 0.0 2.0 0.00 0.00 0.00 87 1014.8
20260830233546 59 0.0 0.0 0.00 0.00 0.00 86 1014.8
20260830232605 59 0.0 2.0 0.00 0.00 0.00 86 1014.9
20260830231543 59 90 0.0 2.0 0.00 0.00 0.00 86 1015.0
20260830230540 59 113 0.0 2.0 0.00 0.00 0.00 86 1015.1
20260830225538 60 90 0.0 2.0 0.00 0.00 0.00 86 1015.3
20260830224557 59 113 0.0 2.0 0.00 0.00 0.00 87 1015.3
20260830223554 59 113 0.0 2.0 0.00 0.00 0.00 87 1015.2
20260830222532 59 0.0 2.0 0.00 0.00 0.00 87 1015.3
20260830221531 60 0.0 2.0 0.00 0.00 0.00 86 1015.3
20260830220528 60 113 0.0 2.0 0.00 0.00 0.00 86 1015.5
20260830215547 60 113 0.0 2.0 0.00 0.00 0.00 86 1015.4
20260830214544 60 0.0 0.0 0.00 0.00 0.00 85 1015.4
20260830213523 60 0.0 0.0 0.00 0.01 0.00 85 1015.4
20260830212540 61 90 0.0 2.0 0.00 0.01 0.00 84 1015.4
20260830211518 61 0.0 2.0 0.00 0.01 0.00 83 1015.5
20260830210516 61 90 0.0 2.0 0.00 0.01 0.00 82 1015.6
20260830205635 62 90 0.0 2.0 0.00 0.01 0.00 82 1015.6
20260830204613 62 113 1.0 4.0 0.00 0.01 0.00 82 1015.5
20260830203610 61 120 1.0 4.0 0.00 0.01 0.00 83 1015.7
20260830202608 62 113 0.0 2.0 0.00 0.01 0.00 83 1015.7
20260830201607 62 113 1.0 2.0 0.00 0.01 0.00 82 1015.6